Flag for U.S.A. Weather past 2 weeks in Wheaton, Illinois, U.S.A.

Now
73 °F

Sunny.


Feels Like: 77 °F
Forecast: 58 / 81 °F
Wind: 6 mph from West

Location: Dupage Airport

Current Time: Jul 4, 2015 at 11:08:39 AM

Latest Report: Jul 4, 2015 at 9:52 AM


Visibility: 10 mi

Pressure: 29.99 "Hg

Humidity: 57%

Dew point: 57 °F

Location of WheatonLocation

Historic Weather in Wheaton — Graph

°F

Wheaton temperature yesterday

Maximum temperature yesterday: 78 °F (at 3:52 PM)
Minimum temperature yesterday: 53 °F (at 1:52 AM)
Average temperature yesterday: 66 °F

Past Weeks' High & Low Weather Summary

 TemperatureHumidityPressure
High84 °F (Jun 21, 2:52 PM)97% (Jun 21, 4:52 AM)30.15 "Hg (Jun 21, 4:52 AM)
Low48 °F (Jul 2, 3:52 AM)37% (Jun 27, 2:52 PM)29.67 "Hg (Jun 20, 1:52 PM)
Average67 °F75%29.93 "Hg
* Reported Jun 19 9:52 AM — Jul 4 9:52 AM, Wheaton, Weather by CustomWeather, © 2015

Note: Actual official high and low records may vary slightly from our data, if they occured in-between our weather recording intervals... More about our weather records

Advertising

Wheaton weather history for previous 24 hours

 ConditionsComfort  
Time TempWeatherWind HumidityBarometerVisibility
9:52 AM
Sat, Jul 4
73 °FSunny.6 mph57%29.99 "Hg10 mi
8:52 AM71 °FSunny.5 mph61%29.98 "Hg10 mi
7:52 AM66 °FSunny.No wind78%29.98 "Hg6 mi
6:52 AM60 °FFog.No wind86%29.97 "Hg5 mi
5:52 AM56 °FFog.3 mph90%29.96 "Hg6 mi
4:52 AM57 °FClear.No wind90%29.95 "Hg7 mi
3:52 AM58 °FClear.No wind87%29.95 "Hg7 mi
2:52 AM59 °FClear.No wind87%29.94 "Hg8 mi
1:52 AM58 °FClear.No wind90%29.94 "Hg8 mi
12:52 AM60 °FClear.No wind83%29.95 "Hg9 mi
11:52 PM
Fri, Jul 3
62 °FClear.No wind75%29.94 "Hg10 mi
10:52 PM63 °FClear.No wind75%29.93 "Hg10 mi
9:52 PM67 °FClear.3 mph61%29.92 "Hg10 mi
8:52 PM68 °FSunny.5 mph61%29.90 "Hg10 mi
7:52 PM72 °FScattered clouds.5 mph55%29.90 "Hg10 mi
6:52 PM76 °FPartly sunny.5 mph50%29.90 "Hg10 mi
5:52 PM77 °FPassing clouds.5 mph48%29.90 "Hg10 mi
4:52 PM78 °FPassing clouds.3 mph45%29.91 "Hg10 mi
3:52 PM78 °FPassing clouds.6 mph45%29.92 "Hg10 mi
2:52 PM76 °FScattered clouds.6 mph48%29.93 "Hg10 mi
1:52 PM76 °FScattered clouds.6 mph47%29.95 "Hg10 mi
12:52 PM74 °FPassing clouds.No wind52%29.96 "Hg10 mi
11:52 AM73 °FPassing clouds.3 mph53%29.96 "Hg10 mi
Weather by CustomWeather, © 2015

See weather overviewHow to use our weather pages